Regional Weather Roundup
Issued by NWS

Current Version | Previous Version | Text Only | Print | Product List | Glossary On
Versions: 1 2 3 4 5 6 7 8 9 10 11 12 13 14 15 16 17 18 19 20 21 22 23 24 25 26 27 28 29 30 31 32 33 34 35 36 37 38 39 40 41 42 43 44 45 46 47 48 49 50
000
ASUS43 KOAX 301310
RWRNE

WEATHER ROUNDUP FOR NEBRASKA
NATIONAL WEATHER SERVICE OMAHA NE
800 AM CDT FRI SEP 30 2022

NOTES: SATELLITE DATA IS BEING USED TO AUGMENT CLOUD COVER ABOVE
       12000 FEET.
       "FAIR" INDICATES FEW OR NO CLOUDS BELOW 12,000 FEET WITH NO
       SIGNIFICANT WEATHER AND/OR OBSTRUCTIONS TO VISIBILITY.


NEZ001>004-019>022-054>056-301400-
NEBRASKA PANHANDLE

CITY           SKY/WX    TMP DP  RH WIND       PRES   REMARKS
SCOTTSBLUFF    MOCLDY    50  44  80 CALM      30.02R
ALLIANCE       PTCLDY    44  41  89 W5        30.00
CHADRON        PTCLDY    55  42  61 SW8       29.95F
GORDON         PTCLDY    58  44  59 SW3       29.96S
KIMBALL        PTCLDY    44  41  89 W8        30.06R
SIDNEY         CLEAR     49  44  83 W10       30.00S
$$

NEZ057>060-069>072-079>082-301400-
SOUTHWEST NEBRASKA

CITY           SKY/WX    TMP DP  RH WIND       PRES   REMARKS
NORTH PLATTE   PTCLDY    48  43  82 E6        29.99R
IMPERIAL       PTCLDY    48  45  89 SW6       29.98
LEXINGTON      PTCLDY    52  46  79 SE7       30.00S
MCCOOK         MOCLDY    53  45  74 E12       29.98S
OGALLALA       PTCLDY    49  46  90 CALM      30.00R
$$

NEZ005>010-023>029-035>040-094-301400-
NORTH CENTRAL NEBRASKA

CITY           SKY/WX    TMP DP  RH WIND       PRES   REMARKS
VALENTINE      PTCLDY    56  45  66 S6        29.95F
AINSWORTH      PTCLDY    55  44  64 S14       29.97F
BROKEN BOW     PTCLDY    49  44  83 SE5       30.00
O`NEILL        PTCLDY    55  40  58 S13       30.02R
ORD            CLEAR     53  43  68 SE8       30.01
THEDFORD       PTCLDY    53  43  70 CALM      29.99F
$$

NEZ041-046>049-061>064-073>077-083>087-301400-
SOUTH CENTRAL NEBRASKA

CITY           SKY/WX    TMP DP  RH WIND       PRES   REMARKS
GRAND ISLAND   CLEAR     55  40  56 SE12      30.05F
AURORA         CLEAR     55  41  59 SE13      30.07R
HASTINGS       CLEAR     54  41  61 S10       30.05S
HEBRON         PTCLDY    56  41  58 SE9       30.09S
HOLDREGE       CLEAR     53  45  72 SE8       30.01S
KEARNEY        CLEAR     51  44  77 SE7       30.03S
YORK           PTCLDY    55  41  58 SE12      30.08R
$$

NEZ011>018-030>034-042>045-301400-
NORTHEAST NEBRASKA

CITY           SKY/WX    TMP DP  RH WIND       PRES   REMARKS
NORFOLK        PTCLDY    55  39  54 SE14      30.07F
ALBION         PTCLDY    52  40  64 SE8       30.06S
BLAIR          PTCLDY    54  40  60 SE8G17    30.14S
COLUMBUS         N/A     55  40  56 SE10      30.11S
FREMONT        PTCLDY    55  42  61 SE7       30.13F
TEKAMAH        PTCLDY    53  41  63 SE8       30.13F
WAYNE          PTCLDY    55  40  58 S13G20    30.10R
$$

NEZ050>053-065>068-078-088>093-301400-
SOUTHEAST NEBRASKA

CITY           SKY/WX    TMP DP  RH WIND       PRES   REMARKS
LINCOLN        PTCLDY    56  42  59 S14       30.12F
OMAHA EPPLEY   MOCLDY    54  41  61 SE10      30.17S
BEATRICE       MOCLDY    53  45  74 SE9       30.12F
FALLS CITY     PTCLDY    49  43  80 SE3       30.18S
NEBRASKA CITY  PTCLDY    52  42  67 S8        30.17S
PLATTSMOUTH    PTCLDY    52  40  64 SE14      30.17R
$$

NEZ044-045-051>053-067-301400-
OMAHA AREA

CITY           SKY/WX    TMP DP  RH WIND       PRES   REMARKS
OMAHA EPPLEY   MOCLDY    54  41  61 SE10      30.17S
BLAIR          PTCLDY    54  40  60 SE8G17    30.14S
FREMONT        PTCLDY    55  42  61 SE7       30.13F
MILLARD        PTCLDY    53  41  64 SE8       30.15S
OFFUTT AFB     MOCLDY    53  40  63 SE6       30.18S
PLATTSMOUTH    PTCLDY    52  40  64 SE14      30.17R
WAHOO          PTCLDY    52  41  65 SE5       30.13S
$$



USA.gov is the U.S. government's official web portal to all federal, state and local government web resources and services.